Weather History for K46D - December, 2013

Change the Weather History Date:

Saturday, December 7, 2013

  Actual Average (KJMS) Record (KJMS)
Temperature  
Mean Temperature -12 °F 17 °F  
Max Temperature -7 °F 25 °F 61 °F (1939)
Min Temperature -18 °F 8 °F -24 °F (1906)
Degree Days  
Heating Degree Days 78 48  
Month to date heating degree days 330  
Since 1 July heating degree days 2414  
Cooling Degree Days 0 0  
Month to date cooling degree days 0  
Year to date cooling degree days 446  
Moisture  
Dew Point -20 °F    
Average Humidity 74    
Maximum Humidity 84    
Minimum Humidity 64    
Precipitation  
Precipitation 0.00 in 0.01 in 0.31 in (1963)
Month to date precipitation 0.10  
Year to date precipitation 18.47  
Sea Level Pressure  
Sea Level Pressure 30.47 in    
Wind  
Wind Speed 13 mph (West)    
Max Wind Speed 20 mph    
Max Gust Speed -    
Visibility 10 miles    
Events      
T = Trace of Precipitation, MM = Missing Value Source: NWS Daily Summary

Daily Weather History Graph

Daily Weather History Graph

Search for Another Location

Airport or City:

Trip Planner

Search our weather history database for the weather conditions in past years. The results will help you decide how hot, cold, wet, or windy it might be!

Date:

Astronomy

Dec. 07, 2013 Rise Set
Actual Time 8:10 AM CST 4:45 PM CST
Civil Twilight 7:34 AM CST 5:21 PM CST
Nautical Twilight 6:56 AM CST 6:00 PM CST
Astronomical Twilight 6:18 AM CST 6:37 PM CST
Moon 11:41 AM CST (12/7) 10:46 PM CST (12/7)
Length of Visible Light 9h 46m
Length of Day
8h 35m
Waxing Crescent, 29% of the Moon is Illuminated
Dec 7
Waxing Crescent
Dec 9
First Quarter
Dec 17
Full
Dec 25
Last Quarter
Jan 1
New

Hourly Weather History & Observations

Time (CST) Temp. Windchill Dew Point Humidity Pressure Visibility Wind Dir Wind Speed Gust Speed Precip Events Conditions
12:15 AM -13.0 °F -35.2 °F -20.2 °F 70% 30.53 in 10.0 mi West 13.8 mph - N/A   Clear
12:35 AM -13.0 °F -36.0 °F -20.2 °F 70% 30.52 in 10.0 mi West 15.0 mph - N/A   Clear
12:55 AM -13.0 °F -36.0 °F -20.2 °F 70% 30.52 in - West 15.0 mph - N/A   Clear
1:15 AM -13.0 °F -34.3 °F -20.2 °F 70% 30.52 in - West 12.7 mph - N/A   Clear
1:35 AM -14.8 °F -35.6 °F -20.2 °F 77% 30.52 in 10.0 mi West 11.5 mph - N/A   Clear
1:55 AM -14.8 °F -36.6 °F -20.2 °F 77% 30.52 in 10.0 mi West 12.7 mph - N/A   Clear
2:15 AM -13.0 °F -36.8 °F -20.2 °F 70% 30.52 in 10.0 mi West 16.1 mph - N/A   Clear
2:35 AM -14.8 °F -36.6 °F -20.2 °F 77% 30.52 in 10.0 mi West 12.7 mph - N/A   Clear
2:55 AM -14.8 °F -37.5 °F -22.0 °F 70% 30.52 in - West 13.8 mph - N/A   Clear
3:15 AM -14.8 °F -38.3 °F -22.0 °F 70% 30.52 in - WNW 15.0 mph - N/A   Clear
3:35 AM -16.6 °F -41.4 °F -22.0 °F 76% 30.52 in 10.0 mi West 16.1 mph - N/A   Partly Cloudy
3:55 AM -14.8 °F -40.5 °F -20.2 °F 77% 30.51 in 10.0 mi West 18.4 mph - N/A   Mostly Cloudy
4:15 AM -13.0 °F -38.8 °F -20.2 °F 70% 30.51 in 10.0 mi WNW 19.6 mph - N/A   Overcast
4:35 AM -14.8 °F -40.5 °F -22.0 °F 70% 30.51 in 10.0 mi West 18.4 mph - N/A   Mostly Cloudy
4:55 AM -14.8 °F -39.1 °F -22.0 °F 70% 30.51 in 10.0 mi West 16.1 mph - N/A   Partly Cloudy
5:15 AM -16.6 °F -42.1 °F -22.0 °F 76% 30.50 in - West 17.3 mph - N/A   Clear
5:35 AM -16.6 °F -40.6 °F -22.0 °F 76% 30.50 in - West 15.0 mph - N/A   Clear
5:55 AM -16.6 °F -38.9 °F -22.0 °F 76% 30.51 in - West 12.7 mph - N/A   Clear
6:15 AM -16.6 °F -36.8 °F -22.0 °F 76% 30.51 in - West 10.4 mph - N/A   Clear
6:35 AM -16.6 °F -35.7 °F -22.0 °F 76% 30.51 in - West 9.2 mph - N/A   Clear
6:55 AM -18.4 °F -36.6 °F -23.8 °F 76% 30.51 in - West 8.1 mph - N/A   Clear
7:15 AM -16.6 °F -34.4 °F -22.0 °F 76% 30.51 in 10.0 mi West 8.1 mph - N/A   Clear
7:35 AM -18.4 °F -39.1 °F -23.8 °F 76% 30.51 in 10.0 mi West 10.4 mph - N/A   Clear
7:55 AM -18.4 °F -40.2 °F -23.8 °F 76% 30.50 in 10.0 mi WNW 11.5 mph - N/A   Clear
8:15 AM -18.4 °F -41.2 °F -25.6 °F 70% 30.51 in 10.0 mi West 12.7 mph - N/A   Clear
8:35 AM -18.4 °F -37.9 °F -23.8 °F 76% 30.51 in - West 9.2 mph - N/A   Clear
8:55 AM -18.4 °F -39.1 °F -23.8 °F 76% 30.52 in 10.0 mi West 10.4 mph - N/A   Clear
9:15 AM -16.6 °F -38.9 °F -23.8 °F 70% 30.52 in 10.0 mi West 12.7 mph - N/A   Clear
9:35 AM -16.6 °F -39.8 °F -22.0 °F 76% 30.53 in 10.0 mi West 13.8 mph - N/A   Clear
9:55 AM -14.8 °F -37.5 °F -22.0 °F 70% 30.53 in 10.0 mi West 13.8 mph - N/A   Clear
10:15 AM -14.8 °F -39.8 °F -22.0 °F 70% 30.53 in 10.0 mi West 17.3 mph - N/A   Clear
10:35 AM -13.0 °F -37.5 °F -20.2 °F 70% 30.53 in - West 17.3 mph - N/A   Clear
10:55 AM -13.0 °F -36.8 °F -20.2 °F 70% 30.53 in - West 16.1 mph - N/A   Clear
11:15 AM -13.0 °F -36.0 °F -20.2 °F 70% 30.53 in - West 15.0 mph - N/A   Clear
11:35 AM -11.2 °F -32.9 °F -20.2 °F 64% 30.52 in - West 13.8 mph - N/A   Clear
11:55 AM -11.2 °F -33.7 °F -18.4 °F 70% 30.52 in - West 15.0 mph - N/A   Clear
12:15 PM -11.2 °F -33.7 °F -18.4 °F 70% 30.50 in - West 15.0 mph - N/A   Clear
12:35 PM -11.2 °F -32.1 °F -18.4 °F 70% 30.49 in 10.0 mi West 12.7 mph - N/A   Clear
12:55 PM -9.4 °F -30.6 °F -18.4 °F 65% 30.49 in 10.0 mi West 13.8 mph - N/A   Clear
1:15 PM -9.4 °F -30.6 °F -16.6 °F 71% 30.49 in 10.0 mi West 13.8 mph - N/A   Clear
1:35 PM -9.4 °F -31.4 °F -16.6 °F 71% 30.48 in - West 15.0 mph - N/A   Clear
1:55 PM -7.6 °F -29.1 °F -16.6 °F 65% 30.47 in - West 15.0 mph - N/A   Clear
2:15 PM -7.6 °F -28.3 °F -14.8 °F 71% 30.46 in 10.0 mi West 13.8 mph - N/A   Clear
2:35 PM -7.6 °F -27.5 °F -14.8 °F 71% 30.45 in 10.0 mi West 12.7 mph - N/A   Clear
2:55 PM -7.6 °F -26.6 °F -14.8 °F 71% 30.45 in 10.0 mi West 11.5 mph - N/A   Clear
3:15 PM -7.6 °F -26.6 °F -13.0 °F 77% 30.45 in 10.0 mi West 11.5 mph - N/A   Clear
3:35 PM -7.6 °F -25.7 °F -13.0 °F 77% 30.44 in 10.0 mi West 10.4 mph - N/A   Clear
3:55 PM -7.6 °F -20.6 °F -13.0 °F 77% 30.44 in 10.0 mi WSW 5.8 mph - N/A   Clear
4:15 PM -7.6 °F -20.6 °F -14.8 °F 71% 30.44 in 10.0 mi SW 5.8 mph - N/A   Clear
4:35 PM -9.4 °F -25.6 °F -14.8 °F 77% 30.43 in 10.0 mi WSW 8.1 mph - N/A   Clear
4:55 PM -11.2 °F -24.8 °F -16.6 °F 77% 30.43 in 10.0 mi SW 5.8 mph - N/A   Clear
5:15 PM -11.2 °F -26.4 °F -16.6 °F 77% 30.43 in 10.0 mi SW 6.9 mph - N/A   Clear
5:35 PM -13.0 °F -30.0 °F -18.4 °F 77% 30.42 in 10.0 mi SW 8.1 mph - N/A   Clear
5:55 PM -13.0 °F -28.6 °F -18.4 °F 77% 30.42 in 10.0 mi SW 6.9 mph - N/A   Clear
6:15 PM -13.0 °F -27.0 °F -18.4 °F 77% 30.42 in 10.0 mi WSW 5.8 mph - N/A   Clear
6:35 PM -13.0 °F -30.0 °F -18.4 °F 77% 30.41 in 10.0 mi WSW 8.1 mph - N/A   Clear
6:55 PM -14.8 °F -34.6 °F -20.2 °F 77% 30.41 in 10.0 mi SW 10.4 mph - N/A   Clear
7:15 PM -13.0 °F -31.3 °F -18.4 °F 77% 30.40 in 10.0 mi WSW 9.2 mph - N/A   Clear
7:35 PM -13.0 °F -30.0 °F -18.4 °F 77% 30.40 in 10.0 mi WSW 8.1 mph - N/A   Clear
7:55 PM -13.0 °F -27.0 °F -20.2 °F 70% 30.40 in 10.0 mi WSW 5.8 mph - N/A   Clear
8:15 PM -14.8 °F -29.1 °F -20.2 °F 77% 30.39 in 10.0 mi WSW 5.8 mph - N/A   Clear
8:35 PM -14.8 °F -32.2 °F -20.2 °F 77% 30.38 in 10.0 mi WSW 8.1 mph - N/A   Clear
8:55 PM -14.8 °F -32.2 °F -20.2 °F 77% 30.37 in 10.0 mi WSW 8.1 mph - N/A   Clear
9:15 PM -16.6 °F -35.7 °F -20.2 °F 84% 30.36 in 10.0 mi West 9.2 mph - N/A   Clear
9:35 PM -16.6 °F -32.9 °F -20.2 °F 84% 30.36 in 10.0 mi WSW 6.9 mph - N/A   Clear
9:55 PM -16.6 °F -36.8 °F -20.2 °F 84% 30.35 in 10.0 mi WSW 10.4 mph - N/A   Clear
10:15 PM -16.6 °F -36.8 °F -22.0 °F 76% 30.36 in 10.0 mi SW 10.4 mph - N/A   Clear
10:35 PM -14.8 °F -34.6 °F -20.2 °F 77% 30.35 in 10.0 mi SW 10.4 mph - N/A   Clear
10:55 PM -14.8 °F -29.1 °F -20.2 °F 77% 30.35 in 10.0 mi WSW 5.8 mph - N/A   Clear
11:15 PM -14.8 °F -32.2 °F -20.2 °F 77% 30.34 in 10.0 mi WSW 8.1 mph - N/A   Clear
11:35 PM -16.6 °F -34.4 °F -20.2 °F 84% 30.33 in 10.0 mi SW 8.1 mph - N/A   Clear
11:55 PM -16.6 °F -29.3 °F -20.2 °F 84% 30.32 in 10.0 mi WSW 4.6 mph - N/A   Clear